| time (UTC) | temp F | wind direction | speed knots | gust knots | rain 1hr in | rain 24hr in | rain mn in | humidity % | barometer mb |
| 20260505184525 | 55 | 0 | 0.0 | 0.0 | 0.00 | 0.00 | 0.00 | 72 | 1012.9 |
| 20260505184004 | 55 | 0 | 0.0 | 0.0 | 0.00 | 0.00 | 0.00 | 72 | 1012.8 |
| 20260505183504 | 55 | 0 | 0.0 | 0.0 | 0.00 | 0.00 | 0.00 | 73 | 1012.8 |
| 20260505183004 | 56 | 0 | 0.0 | 0.0 | 0.00 | 0.00 | 0.00 | 75 | 1012.8 |
| 20260505182504 | 56 | 0 | 0.0 | 0.0 | 0.00 | 0.00 | 0.00 | 75 | 1012.7 |
| 20260505182025 | 56 | 0 | 0.0 | 0.0 | 0.00 | 0.00 | 0.00 | 75 | 1012.7 |
| 20260505181525 | 56 | 0 | 0.0 | 0.0 | 0.00 | 0.00 | 0.00 | 75 | 1012.7 |
| 20260505181004 | 56 | 0 | 0.0 | 0.0 | 0.00 | 0.00 | 0.00 | 74 | 1012.7 |
| 20260505180504 | 57 | 0 | 0.0 | 0.0 | 0.00 | 0.00 | 0.00 | 74 | 1012.7 |
| 20260505180025 | 57 | 300 | 0.0 | 2.6 | 0.00 | 0.00 | 0.00 | 74 | 1012.7 |
| 20260505175504 | 57 | 306 | 0.0 | 2.6 | 0.00 | 0.00 | 0.00 | 73 | 1012.6 |
| 20260505175025 | 57 | 315 | 0.0 | 2.6 | 0.00 | 0.00 | 0.00 | 72 | 1012.6 |
| 20260505174504 | 57 | 317 | 0.9 | 3.5 | 0.00 | 0.00 | 0.00 | 70 | 1012.6 |
| 20260505174004 | 58 | 317 | 0.9 | 3.5 | 0.00 | 0.00 | 0.00 | 69 | 1012.6 |
| 20260505173504 | 58 | 317 | 0.9 | 3.5 | 0.00 | 0.00 | 0.00 | 68 | 1012.6 |
| 20260505173004 | 58 | 326 | 0.9 | 4.3 | 0.00 | 0.00 | 0.00 | 67 | 1012.6 |
| 20260505172503 | 58 | 336 | 0.9 | 4.3 | 0.00 | 0.00 | 0.00 | 67 | 1012.6 |
| 20260505172004 | 58 | 342 | 0.9 | 3.5 | 0.00 | 0.00 | 0.00 | 67 | 1012.6 |
| 20260505171503 | 58 | 342 | 0.9 | 3.5 | 0.00 | 0.00 | 0.00 | 69 | 1012.6 |
| 20260505171003 | 58 | 342 | 0.9 | 3.5 | 0.00 | 0.00 | 0.00 | 69 | 1012.7 |
| 20260505170504 | 58 | 345 | 0.9 | 3.5 | 0.00 | 0.00 | 0.00 | 68 | 1012.7 |
| 20260505170004 | 58 | 340 | 0.9 | 4.3 | 0.00 | 0.00 | 0.00 | 67 | 1012.7 |
| 20260505165504 | 58 | 345 | 1.7 | 5.2 | 0.00 | 0.00 | 0.00 | 66 | 1012.6 |
| 20260505165004 | 59 | 345 | 1.7 | 7.0 | 0.00 | 0.00 | 0.00 | 66 | 1012.7 |
| 20260505164525 | 59 | 340 | 1.7 | 7.0 | 0.00 | 0.00 | 0.00 | 63 | 1012.6 |
| 20260505164024 | 59 | 342 | 1.7 | 5.2 | 0.00 | 0.00 | 0.00 | 63 | 1012.6 |
| 20260505163504 | 59 | 326 | 0.9 | 5.2 | 0.00 | 0.00 | 0.00 | 61 | 1012.6 |
| 20260505163003 | 59 | 311 | 0.9 | 2.6 | 0.00 | 0.00 | 0.00 | 60 | 1012.6 |
| 20260505162503 | 59 | 319 | 0.9 | 4.3 | 0.00 | 0.00 | 0.00 | 60 | 1012.6 |
| 20260505162004 | 59 | 312 | 0.9 | 4.3 | 0.00 | 0.00 | 0.00 | 59 | 1012.6 |
| 20260505161503 | 59 | 318 | 1.7 | 5.2 | 0.00 | 0.00 | 0.00 | 58 | 1012.7 |
| 20260505161003 | 59 | 320 | 1.7 | 6.1 | 0.00 | 0.00 | 0.00 | 58 | 1012.7 |
| 20260505160503 | 59 | 305 | 1.7 | 6.1 | 0.00 | 0.00 | 0.00 | 58 | 1012.7 |
| 20260505153004 | 59 | 311 | 1.7 | 7.8 | 0.00 | 0.00 | 0.00 | 55 | 1013.0 |
| 20260505152504 | 59 | 327 | 1.7 | 7.8 | 0.00 | 0.00 | 0.00 | 55 | 1013.0 |
| 20260505152004 | 59 | 330 | 1.7 | 7.0 | 0.00 | 0.00 | 0.00 | 54 | 1013.1 |
| 20260505151524 | 59 | 339 | 0.9 | 5.2 | 0.00 | 0.00 | 0.00 | 55 | 1013.1 |
| 20260505151024 | 59 | 343 | 2.6 | 7.0 | 0.00 | 0.00 | 0.00 | 56 | 1013.1 |
| 20260505150524 | 60 | 339 | 2.6 | 7.8 | 0.00 | 0.00 | 0.00 | 55 | 1013.1 |
| 20260505140506 | 60 | 305 | 1.7 | 6.1 | 0.00 | 0.00 | 0.00 | 54 | 1013.5 |
| 20260505125006 | 58 | 328 | 2.6 | 7.0 | 0.00 | 0.00 | 0.00 | 63 | 1013.6 |
| 20260505124506 | 58 | 328 | 2.6 | 7.0 | 0.00 | 0.00 | 0.00 | 62 | 1013.6 |
| 20260505124006 | 58 | 332 | 2.6 | 7.8 | 0.00 | 0.00 | 0.00 | 64 | 1013.6 |
| 20260505123506 | 58 | 328 | 1.7 | 7.8 | 0.00 | 0.00 | 0.00 | 64 | 1013.6 |
| 20260505123008 | 58 | 320 | 1.7 | 6.1 | 0.00 | 0.00 | 0.00 | 67 | 1013.6 |
| 20260505122507 | 58 | 327 | 2.6 | 7.0 | 0.00 | 0.00 | 0.00 | 67 | 1013.7 |
| 20260505122006 | 58 | 329 | 2.6 | 7.0 | 0.00 | 0.00 | 0.00 | 68 | 1013.7 |
| 20260505121506 | 57 | 328 | 2.6 | 7.8 | 0.00 | 0.00 | 0.00 | 68 | 1013.7 |
| 20260505121007 | 57 | 321 | 2.6 | 7.8 | 0.00 | 0.00 | 0.00 | 68 | 1013.6 |
| 20260505120506 | 57 | 327 | 2.6 | 7.0 | 0.00 | 0.00 | 0.00 | 68 | 1013.7 |
| 20260505120027 | 57 | 325 | 2.6 | 8.7 | 0.00 | 0.00 | 0.00 | 68 | 1013.6 |
| 20260505115506 | 57 | 326 | 3.5 | 8.7 | 0.00 | 0.00 | 0.00 | 67 | 1013.6 |
| 20260505115028 | 57 | 322 | 2.6 | 7.8 | 0.00 | 0.00 | 0.00 | 67 | 1013.6 |
| 20260505114506 | 57 | 309 | 1.7 | 7.8 | 0.00 | 0.00 | 0.00 | 66 | 1013.7 |
| 20260505114006 | 58 | 319 | 1.7 | 6.1 | 0.00 | 0.00 | 0.00 | 66 | 1013.7 |
| 20260505113506 | 58 | 342 | 1.7 | 5.2 | 0.00 | 0.00 | 0.00 | 66 | 1013.8 |
| 20260505113006 | 58 | 345 | 1.7 | 5.2 | 0.00 | 0.00 | 0.00 | 66 | 1013.9 |
| 20260505112506 | 58 | 339 | 0.9 | 4.3 | 0.00 | 0.00 | 0.00 | 66 | 1014.0 |
| 20260505112006 | 58 | 347 | 0.9 | 4.3 | 0.00 | 0.00 | 0.00 | 66 | 1014.0 |
| 20260505111506 | 57 | 343 | 0.9 | 4.3 | 0.00 | 0.00 | 0.00 | 66 | 1014.0 |
| 20260505111007 | 58 | 323 | 0.9 | 4.3 | 0.00 | 0.00 | 0.00 | 65 | 1014.1 |
| 20260505110507 | 57 | 324 | 1.7 | 4.3 | 0.00 | 0.00 | 0.00 | 64 | 1014.1 |
| 20260505102007 | 57 | 322 | 1.7 | 4.3 | 0.00 | 0.00 | 0.00 | 64 | 1014.2 |
| 20260505101506 | 58 | 308 | 0.9 | 4.3 | 0.00 | 0.00 | 0.00 | 65 | 1014.2 |
| 20260505101006 | 58 | 357 | 0.9 | 3.5 | 0.00 | 0.00 | 0.00 | 65 | 1014.1 |
| 20260505100506 | 58 | 11 | 0.9 | 2.6 | 0.00 | 0.00 | 0.00 | 67 | 1014.1 |
| 20260505100006 | 58 | 349 | 0.0 | 3.5 | 0.00 | 0.00 | 0.00 | 68 | 1014.1 |
| 20260505095527 | 57 | 72 | 0.0 | 3.5 | 0.00 | 0.00 | 0.00 | 68 | 1014.1 |
| 20260505095006 | 57 | 144 | 0.9 | 4.3 | 0.00 | 0.00 | 0.00 | 68 | 1014.2 |
| 20260505094506 | 57 | 168 | 0.0 | 4.3 | 0.00 | 0.00 | 0.00 | 69 | 1014.2 |
| 20260505094006 | 56 | 23 | 0.0 | 3.5 | 0.00 | 0.00 | 0.00 | 69 | 1014.2 |
| 20260505093506 | 56 | 22 | 0.9 | 3.5 | 0.00 | 0.00 | 0.00 | 70 | 1014.2 |
| 20260505093006 | 55 | 36 | 0.0 | 3.5 | 0.00 | 0.00 | 0.00 | 71 | 1014.2 |
| 20260505092506 | 55 | 147 | 0.9 | 3.5 | 0.00 | 0.00 | 0.00 | 72 | 1014.3 |
| 20260505092006 | 55 | 161 | 0.9 | 3.5 | 0.00 | 0.00 | 0.00 | 70 | 1014.3 |
| 20260505091506 | 55 | 98 | 0.0 | 1.7 | 0.00 | 0.00 | 0.00 | 72 | 1014.3 |
| 20260505091006 | 55 | 89 | 0.0 | 1.7 | 0.00 | 0.00 | 0.00 | 72 | 1014.3 |
| 20260505090506 | 54 | 16 | 0.0 | 1.7 | 0.00 | 0.00 | 0.00 | 73 | 1014.4 |
| 20260505090006 | 54 | 356 | 0.0 | 1.7 | 0.00 | 0.00 | 0.00 | 73 | 1014.4 |
| 20260505085506 | 54 | 161 | 0.0 | 3.5 | 0.00 | 0.00 | 0.00 | 73 | 1014.5 |
| 20260505085006 | 53 | 161 | 0.0 | 5.2 | 0.00 | 0.00 | 0.00 | 74 | 1014.5 |
| 20260505084506 | 53 | 134 | 0.9 | 5.2 | 0.00 | 0.00 | 0.00 | 75 | 1014.5 |
| 20260505084006 | 53 | 84 | 0.0 | 2.6 | 0.00 | 0.01 | 0.00 | 76 | 1014.5 |
| 20260505083507 | 53 | 142 | 0.9 | 7.8 | 0.00 | 0.01 | 0.00 | 76 | 1014.5 |
| 20260505083006 | 52 | 153 | 0.9 | 7.8 | 0.00 | 0.01 | 0.00 | 77 | 1014.5 |
| 20260505082506 | 52 | 146 | 0.0 | 7.0 | 0.00 | 0.01 | 0.00 | 78 | 1014.6 |
| 20260505082006 | 52 | 138 | 0.0 | 1.7 | 0.00 | 0.01 | 0.00 | 79 | 1014.6 |
| 20260505081506 | 52 | 156 | 0.0 | 1.7 | 0.00 | 0.01 | 0.00 | 80 | 1014.6 |
| 20260505081006 | 52 | 0 | 0.0 | 0.0 | 0.00 | 0.01 | 0.00 | 81 | 1014.6 |
| 20260505080527 | 52 | 0 | 0.0 | 0.0 | 0.00 | 0.01 | 0.00 | 82 | 1014.5 |
| 20260505080027 | 51 | 0 | 0.0 | 0.0 | 0.00 | 0.01 | 0.00 | 82 | 1014.6 |
| 20260505075506 | 51 | 0 | 0.0 | 0.0 | 0.00 | 0.01 | 0.00 | 82 | 1014.5 |
| 20260505075006 | 51 | 0 | 0.0 | 0.0 | 0.00 | 0.01 | 0.00 | 83 | 1014.5 |
| 20260505074527 | 51 | 0 | 0.0 | 0.0 | 0.00 | 0.01 | 0.00 | 83 | 1014.5 |
| 20260505074006 | 51 | 156 | 0.0 | 2.6 | 0.00 | 0.01 | 0.00 | 83 | 1014.5 |
| 20260505073506 | 51 | 156 | 0.0 | 2.6 | 0.00 | 0.01 | 0.00 | 83 | 1014.5 |
| 20260505073006 | 51 | 156 | 0.0 | 1.7 | 0.00 | 0.01 | 0.00 | 84 | 1014.4 |
| 20260505072506 | 51 | 156 | 0.0 | 2.6 | 0.00 | 0.01 | 0.00 | 84 | 1014.4 |
| 20260505072005 | 51 | 156 | 0.0 | 2.6 | 0.00 | 0.01 | 0.00 | 85 | 1014.4 |
| 20260505071505 | 51 | 156 | 0.0 | 1.7 | 0.00 | 0.01 | 0.00 | 85 | 1014.5 |
| 20260505071006 | 51 | 156 | 0.0 | 1.7 | 0.00 | 0.01 | 0.00 | 86 | 1014.5 |
| 20260505070505 | 51 | 156 | 0.0 | 1.7 | 0.00 | 0.01 | 0.00 | 87 | 1014.5 |
| 20260505070006 | 51 | 155 | 0.0 | 4.3 | 0.00 | 0.01 | 0.00 | 87 | 1014.5 |
| 20260505065506 | 51 | 155 | 0.0 | 4.3 | 0.00 | 0.01 | 0.00 | 87 | 1014.5 |
| 20260505065006 | 51 | 0 | 0.0 | 0.0 | 0.00 | 0.01 | 0.00 | 88 | 1014.5 |
| 20260505064527 | 51 | 0 | 0.0 | 0.0 | 0.00 | 0.01 | 0.00 | 88 | 1014.5 |
| 20260505064006 | 51 | 0 | 0.0 | 0.0 | 0.00 | 0.01 | 0.00 | 89 | 1014.5 |
| 20260505063505 | 51 | 0 | 0.0 | 0.0 | 0.00 | 0.01 | 0.00 | 89 | 1014.4 |
| 20260505063006 | 51 | 0 | 0.0 | 0.0 | 0.00 | 0.01 | 0.00 | 89 | 1014.4 |
| 20260505062505 | 51 | 0 | 0.0 | 0.0 | 0.00 | 0.01 | 0.00 | 90 | 1014.3 |
| 20260505062027 | 51 | 0 | 0.0 | 0.0 | 0.00 | 0.01 | 0.00 | 90 | 1014.2 |
| 20260505061526 | 51 | 189 | 0.0 | 2.6 | 0.00 | 0.01 | 0.00 | 90 | 1014.1 |
| 20260505061005 | 51 | 189 | 0.0 | 2.6 | 0.00 | 0.01 | 0.00 | 90 | 1014.1 |
| 20260505060506 | 51 | 0 | 0.0 | 0.0 | 0.00 | 0.01 | 0.00 | 90 | 1014.2 |
| 20260505060006 | 51 | 0 | 0.0 | 0.0 | 0.00 | 0.01 | 0.00 | 90 | 1014.2 |
| 20260505055505 | 51 | 0 | 0.0 | 0.0 | 0.00 | 0.01 | 0.00 | 90 | 1014.2 |
| 20260505055006 | 51 | 0 | 0.0 | 0.0 | 0.00 | 0.01 | 0.00 | 90 | 1014.2 |
| 20260505054506 | 51 | 0 | 0.0 | 0.0 | 0.00 | 0.01 | 0.00 | 90 | 1014.2 |
| 20260505054005 | 51 | 0 | 0.0 | 0.0 | 0.00 | 0.01 | 0.00 | 90 | 1014.3 |
| 20260505053505 | 51 | 0 | 0.0 | 0.0 | 0.00 | 0.01 | 0.00 | 90 | 1014.2 |
| 20260505053005 | 51 | 0 | 0.0 | 0.0 | 0.00 | 0.01 | 0.00 | 90 | 1014.2 |
| 20260505052505 | 50 | 0 | 0.0 | 0.0 | 0.00 | 0.01 | 0.00 | 90 | 1014.2 |
| 20260505052005 | 50 | 0 | 0.0 | 0.0 | 0.00 | 0.01 | 0.00 | 90 | 1014.2 |
| 20260505051526 | 51 | 345 | 0.0 | 0.9 | 0.00 | 0.01 | 0.00 | 90 | 1014.1 |
| 20260505051006 | 51 | 345 | 0.0 | 0.9 | 0.00 | 0.01 | 0.00 | 91 | 1014.1 |
| 20260505050505 | 51 | 0 | 0.0 | 0.0 | 0.00 | 0.01 | 0.00 | 91 | 1014.0 |
| 20260505041505 | 50 | 0 | 0.0 | 0.0 | 0.00 | 0.01 | 0.00 | 91 | 1014.2 |
| 20260505041005 | 50 | 0 | 0.0 | 0.0 | 0.00 | 0.01 | 0.00 | 90 | 1014.1 |
| 20260505040505 | 50 | 0 | 0.0 | 0.0 | 0.00 | 0.01 | 0.00 | 90 | 1014.1 |
| 20260505040005 | 50 | 0 | 0.0 | 0.0 | 0.00 | 0.01 | 0.00 | 90 | 1014.1 |
| 20260505035526 | 50 | 0 | 0.0 | 0.0 | 0.00 | 0.01 | 0.00 | 90 | 1014.0 |
| 20260505035005 | 50 | 0 | 0.0 | 0.0 | 0.00 | 0.01 | 0.00 | 90 | 1014.0 |
| 20260505034505 | 50 | 0 | 0.0 | 0.0 | 0.00 | 0.01 | 0.00 | 90 | 1014.0 |
| 20260505034005 | 50 | 0 | 0.0 | 0.0 | 0.00 | 0.01 | 0.00 | 90 | 1013.9 |
| 20260505033505 | 50 | 0 | 0.0 | 0.0 | 0.00 | 0.01 | 0.00 | 90 | 1013.9 |
| 20260505033005 | 50 | 0 | 0.0 | 0.0 | 0.00 | 0.01 | 0.00 | 90 | 1013.9 |
| 20260505032505 | 51 | 0 | 0.0 | 0.0 | 0.00 | 0.01 | 0.00 | 90 | 1013.9 |
| 20260505032005 | 51 | 0 | 0.0 | 0.0 | 0.00 | 0.01 | 0.00 | 90 | 1014.0 |
| 20260505031505 | 51 | 0 | 0.0 | 0.0 | 0.00 | 0.01 | 0.00 | 90 | 1014.0 |
| 20260505031005 | 51 | 0 | 0.0 | 0.0 | 0.00 | 0.01 | 0.00 | 90 | 1014.0 |
| 20260505030526 | 51 | 0 | 0.0 | 0.0 | 0.00 | 0.01 | 0.00 | 90 | 1013.9 |
| 20260505030005 | 51 | 0 | 0.0 | 0.0 | 0.00 | 0.01 | 0.00 | 90 | 1014.0 |
| 20260505025505 | 51 | 0 | 0.0 | 0.0 | 0.00 | 0.01 | 0.00 | 90 | 1014.1 |
| 20260505025026 | 51 | 0 | 0.0 | 0.0 | 0.00 | 0.01 | 0.00 | 90 | 1014.1 |
| 20260505024505 | 51 | 0 | 0.0 | 0.0 | 0.00 | 0.01 | 0.00 | 90 | 1014.2 |
| 20260505024005 | 50 | 0 | 0.0 | 0.0 | 0.00 | 0.01 | 0.00 | 90 | 1014.1 |
| 20260505023505 | 50 | 0 | 0.0 | 0.0 | 0.00 | 0.01 | 0.00 | 90 | 1014.1 |
| 20260505023005 | 50 | 0 | 0.0 | 0.0 | 0.00 | 0.01 | 0.00 | 90 | 1014.1 |
| 20260505022505 | 50 | 0 | 0.0 | 0.0 | 0.00 | 0.01 | 0.00 | 90 | 1014.1 |
| 20260505022005 | 50 | 0 | 0.0 | 0.0 | 0.00 | 0.01 | 0.00 | 90 | 1014.1 |
| 20260505021526 | 50 | 0 | 0.0 | 0.0 | 0.00 | 0.01 | 0.00 | 90 | 1014.1 |
| 20260505021005 | 50 | 0 | 0.0 | 0.0 | 0.00 | 0.01 | 0.00 | 90 | 1014.2 |
| 20260505020505 | 50 | 0 | 0.0 | 0.0 | 0.00 | 0.01 | 0.00 | 90 | 1014.2 |
| 20260505020005 | 50 | 0 | 0.0 | 0.0 | 0.00 | 0.01 | 0.00 | 90 | 1014.2 |
| 20260505015526 | 50 | 0 | 0.0 | 0.0 | 0.00 | 0.01 | 0.00 | 90 | 1014.1 |
| 20260505015005 | 50 | 0 | 0.0 | 0.0 | 0.00 | 0.01 | 0.00 | 90 | 1014.2 |
| 20260505014505 | 50 | 0 | 0.0 | 0.0 | 0.00 | 0.01 | 0.00 | 89 | 1014.2 |
| 20260505014005 | 50 | 0 | 0.0 | 0.0 | 0.00 | 0.01 | 0.00 | 89 | 1014.2 |
| 20260505013505 | 50 | 0 | 0.0 | 0.0 | 0.00 | 0.01 | 0.00 | 89 | 1014.2 |
| 20260505013026 | 50 | 0 | 0.0 | 0.0 | 0.00 | 0.01 | 0.00 | 89 | 1014.2 |
| 20260505012505 | 51 | 0 | 0.0 | 0.0 | 0.00 | 0.01 | 0.00 | 89 | 1014.2 |
| 20260505012005 | 51 | 0 | 0.0 | 0.0 | 0.00 | 0.01 | 0.00 | 89 | 1014.2 |
| 20260505011504 | 51 | 0 | 0.0 | 0.0 | 0.00 | 0.01 | 0.00 | 89 | 1014.3 |
| 20260505011026 | 51 | 0 | 0.0 | 0.0 | 0.00 | 0.01 | 0.00 | 89 | 1014.2 |
| 20260505010505 | 51 | 0 | 0.0 | 0.0 | 0.00 | 0.01 | 0.00 | 89 | 1014.3 |
| 20260505010026 | 50 | 0 | 0.0 | 0.0 | 0.00 | 0.01 | 0.00 | 89 | 1014.3 |
| 20260505005505 | 50 | 0 | 0.0 | 0.0 | 0.00 | 0.01 | 0.00 | 89 | 1014.4 |
| 20260505005025 | 51 | 0 | 0.0 | 0.0 | 0.00 | 0.01 | 0.00 | 89 | 1014.4 |
| 20260505004505 | 51 | 0 | 0.0 | 0.0 | 0.00 | 0.01 | 0.00 | 89 | 1014.4 |
| 20260505004004 | 51 | 0 | 0.0 | 0.0 | 0.00 | 0.01 | 0.00 | 89 | 1014.4 |
| 20260505003505 | 51 | 0 | 0.0 | 0.0 | 0.00 | 0.01 | 0.00 | 88 | 1014.4 |
| 20260505003005 | 51 | 0 | 0.0 | 0.0 | 0.00 | 0.01 | 0.00 | 88 | 1014.4 |
| 20260505002505 | 52 | 0 | 0.0 | 0.0 | 0.00 | 0.01 | 0.00 | 88 | 1014.5 |
| 20260505002005 | 52 | 0 | 0.0 | 0.0 | 0.00 | 0.01 | 0.00 | 88 | 1014.5 |
| 20260505001504 | 52 | 0 | 0.0 | 0.0 | 0.00 | 0.01 | 0.00 | 88 | 1014.5 |
| 20260505001005 | 52 | 0 | 0.0 | 0.0 | 0.00 | 0.01 | 0.00 | 88 | 1014.6 |
| 20260505000505 | 52 | 185 | 0.0 | 0.9 | 0.00 | 0.01 | 0.00 | 89 | 1014.6 |
| 20260505000004 | 52 | 185 | 0.0 | 0.9 | 0.00 | 0.01 | 0.00 | 88 | 1014.6 |
| 20260504235505 | 52 | 0 | 0.0 | 0.0 | 0.00 | 0.01 | 0.00 | 89 | 1014.7 |
| 20260504235025 | 52 | 0 | 0.0 | 0.0 | 0.00 | 0.01 | 0.00 | 88 | 1014.7 |
| 20260504234505 | 52 | 0 | 0.0 | 0.0 | 0.00 | 0.01 | 0.00 | 88 | 1014.7 |
| 20260504234005 | 52 | 0 | 0.0 | 0.0 | 0.00 | 0.01 | 0.00 | 88 | 1014.7 |
| 20260504233504 | 52 | 184 | 0.0 | 0.9 | 0.00 | 0.01 | 0.00 | 88 | 1014.7 |
| 20260504233004 | 52 | 184 | 0.0 | 0.9 | 0.00 | 0.01 | 0.00 | 88 | 1014.6 |
| 20260504232505 | 52 | 0 | 0.0 | 0.0 | 0.00 | 0.01 | 0.00 | 88 | 1014.6 |
| 20260504232004 | 52 | 186 | 0.0 | 0.9 | 0.00 | 0.01 | 0.00 | 88 | 1014.6 |
| 20260504231504 | 52 | 186 | 0.0 | 0.9 | 0.00 | 0.01 | 0.00 | 87 | 1014.5 |
| 20260504231004 | 53 | 0 | 0.0 | 0.0 | 0.00 | 0.01 | 0.00 | 88 | 1014.5 |
| 20260504230505 | 53 | 0 | 0.0 | 0.0 | 0.00 | 0.01 | 0.00 | 87 | 1014.5 |
| 20260504230007 | 53 | 0 | 0.0 | 0.0 | 0.00 | 0.01 | 0.00 | 87 | 1014.5 |
| 20260504225505 | 53 | 0 | 0.0 | 0.0 | 0.00 | 0.01 | 0.01 | 87 | 1014.5 |
| 20260504225004 | 53 | 0 | 0.0 | 0.0 | 0.00 | 0.01 | 0.01 | 87 | 1014.6 |
| 20260504224505 | 53 | 0 | 0.0 | 0.0 | 0.00 | 0.01 | 0.01 | 88 | 1014.5 |
| 20260504224005 | 53 | 0 | 0.0 | 0.0 | 0.00 | 0.01 | 0.01 | 87 | 1014.6 |
| 20260504223525 | 53 | 0 | 0.0 | 0.0 | 0.00 | 0.01 | 0.01 | 87 | 1014.7 |
| 20260504223005 | 53 | 0 | 0.0 | 0.0 | 0.00 | 0.01 | 0.01 | 87 | 1014.7 |
| 20260504222504 | 53 | 0 | 0.0 | 0.0 | 0.00 | 0.01 | 0.01 | 87 | 1014.7 |
| 20260504222004 | 53 | 0 | 0.0 | 0.0 | 0.00 | 0.01 | 0.01 | 87 | 1014.7 |
| 20260504221526 | 53 | 0 | 0.0 | 0.0 | 0.00 | 0.01 | 0.01 | 87 | 1014.7 |
| 20260504221026 | 53 | 0 | 0.0 | 0.0 | 0.00 | 0.01 | 0.01 | 87 | 1014.7 |
| 20260504220504 | 53 | 0 | 0.0 | 0.0 | 0.00 | 0.01 | 0.01 | 87 | 1014.7 |
| 20260504220005 | 53 | 0 | 0.0 | 0.0 | 0.00 | 0.01 | 0.01 | 87 | 1014.7 |
| 20260504215504 | 53 | 0 | 0.0 | 0.0 | 0.00 | 0.01 | 0.01 | 86 | 1014.7 |
| 20260504215025 | 53 | 0 | 0.0 | 0.0 | 0.00 | 0.01 | 0.01 | 86 | 1014.6 |
| 20260504214504 | 53 | 0 | 0.0 | 0.0 | 0.00 | 0.01 | 0.01 | 86 | 1014.7 |
| 20260504214004 | 53 | 0 | 0.0 | 0.0 | 0.00 | 0.01 | 0.01 | 86 | 1014.7 |
| 20260504213504 | 53 | 0 | 0.0 | 0.0 | 0.00 | 0.01 | 0.01 | 86 | 1014.6 |
| 20260504213004 | 53 | 0 | 0.0 | 0.0 | 0.00 | 0.01 | 0.01 | 86 | 1014.6 |
| 20260504212504 | 53 | 281 | 0.0 | 1.7 | 0.00 | 0.01 | 0.01 | 85 | 1014.6 |
| 20260504212025 | 53 | 281 | 0.0 | 1.7 | 0.00 | 0.01 | 0.01 | 85 | 1014.6 |
| 20260504211504 | 53 | 0 | 0.0 | 0.0 | 0.00 | 0.01 | 0.01 | 85 | 1014.7 |
| 20260504211004 | 54 | 0 | 0.0 | 0.0 | 0.00 | 0.01 | 0.01 | 85 | 1014.7 |
| 20260504210504 | 54 | 0 | 0.0 | 0.0 | 0.00 | 0.01 | 0.01 | 85 | 1014.7 |
| 20260504210025 | 54 | 0 | 0.0 | 0.0 | 0.00 | 0.01 | 0.01 | 84 | 1014.8 |
| 20260504205504 | 54 | 0 | 0.0 | 0.0 | 0.00 | 0.01 | 0.01 | 84 | 1014.9 |
| 20260504205004 | 54 | 0 | 0.0 | 0.0 | 0.00 | 0.01 | 0.01 | 84 | 1014.8 |
| 20260504204504 | 55 | 0 | 0.0 | 0.0 | 0.00 | 0.01 | 0.01 | 84 | 1014.7 |
| 20260504204004 | 55 | 0 | 0.0 | 0.0 | 0.00 | 0.01 | 0.01 | 84 | 1014.8 |
| 20260504203504 | 55 | 0 | 0.0 | 0.0 | 0.00 | 0.01 | 0.01 | 83 | 1014.7 |
| 20260504203025 | 55 | 0 | 0.0 | 0.0 | 0.00 | 0.01 | 0.01 | 83 | 1014.6 |
| 20260504202504 | 56 | 0 | 0.0 | 0.0 | 0.00 | 0.01 | 0.01 | 83 | 1014.6 |
| 20260504202004 | 56 | 0 | 0.0 | 0.0 | 0.00 | 0.01 | 0.01 | 83 | 1014.6 |
| 20260504201525 | 56 | 0 | 0.0 | 0.0 | 0.00 | 0.01 | 0.01 | 82 | 1014.6 |
| 20260504201025 | 56 | 0 | 0.0 | 0.0 | 0.00 | 0.01 | 0.01 | 82 | 1014.6 |
| 20260504200504 | 56 | 0 | 0.0 | 0.0 | 0.00 | 0.01 | 0.01 | 82 | 1014.5 |
| 20260504200004 | 56 | 0 | 0.0 | 0.0 | 0.00 | 0.01 | 0.01 | 81 | 1014.5 |
| 20260504195504 | 56 | 0 | 0.0 | 0.0 | 0.00 | 0.01 | 0.01 | 81 | 1014.4 |
| 20260504195004 | 57 | 0 | 0.0 | 0.0 | 0.00 | 0.01 | 0.01 | 80 | 1014.4 |
| 20260504194504 | 57 | 323 | 0.0 | 1.7 | 0.00 | 0.01 | 0.01 | 80 | 1014.3 |
| 20260504194025 | 57 | 323 | 0.0 | 1.7 | 0.00 | 0.01 | 0.01 | 79 | 1014.4 |
| 20260504193504 | 57 | 0 | 0.0 | 0.0 | 0.00 | 0.01 | 0.01 | 78 | 1014.4 |
| 20260504193004 | 58 | 323 | 0.0 | 1.7 | 0.00 | 0.01 | 0.01 | 77 | 1014.3 |
| 20260504192504 | 58 | 311 | 0.0 | 1.7 | 0.00 | 0.01 | 0.01 | 77 | 1014.2 |
| 20260504192004 | 59 | 274 | 0.9 | 1.7 | 0.00 | 0.01 | 0.01 | 75 | 1014.2 |
| 20260504191504 | 60 | 247 | 0.0 | 3.5 | 0.00 | 0.01 | 0.01 | 74 | 1014.1 |
| 20260504191004 | 61 | 228 | 0.0 | 3.5 | 0.00 | 0.01 | 0.01 | 73 | 1014.1 |
| 20260504190504 | 61 | 109 | 0.0 | 0.9 | 0.00 | 0.01 | 0.01 | 72 | 1014.0 |
| 20260504190004 | 62 | 0 | 0.0 | 0.0 | 0.00 | 0.01 | 0.01 | 72 | 1013.9 |
| 20260504185504 | 62 | 0 | 0.0 | 0.0 | 0.00 | 0.01 | 0.01 | 71 | 1013.8 |
| 20260504185004 | 62 | 0 | 0.0 | 0.0 | 0.00 | 0.01 | 0.01 | 70 | 1013.8 |